Location: Newark
(46.7000°N, 60.6000°W)
Time: 03:47:53
(UTC+00:00)

A-11 Canister half - Pass Details

Date: 04 November 2020
Orbit: 1525 x 1683 km, 47.3° (Epoch: 23 November)

Event Time Altitude Azimuth Distance (km) Brightness Sun altitude
Rises 15:37:52 0° 212° (SSW) 4,852 12.4 27.6°
Reaches altitude 10° 15:41:15 10° 205° (SSW) 3,846 12.3 27.6°
Maximum altitude 15:50:07 41° 140° (SE) 2,168 10.9 27.6°
Drops below altitude 10° 15:58:44 10° 75° (ENE) 3,746 10.9 27.6°
Sets 16:01:58 0° 68° (ENE) 4,714 11.3 27.5°
